Weather in Havast

Uzbekistan     40°12′55″N   68°50′12″E
temp.,
°C
wind,
m/s
gust,
m/s
humid.,
%
clouds,
%
prec.,
mm/h
press.,
hPa
HPBL,
m
18 may, tue
tue1823:00+24se23280 0.0 100831
02:00+22s22310 0.0 100816
05:00+21se33340 0.0 100819
08:00+28ese57230 0.0 1009379
11:00+33e65150 0.0 10071830
14:00+35ene34113 0.0 10063865
17:00+34ssw1312100 0.0 10054129
20:00+27s11132495 0.0 1006232
19 may, wed
wed1923:00+25sw34260 0.0 100548
02:00+23sse22310 0.0 100517
05:00+20nnw01375 0.0 100511
08:00+28sw112489 0.0 1006231
11:00+33wnw44135 0.0 10051693
14:00+35wnw46105 0.0 10044119
17:00+35wnw6792 0.0 10034069
20:00+27sw22175 0.0 100415
20 may, thu
thu2023:00+25sw331839 0.0 100517
02:00+23sw3319100 0.0 100629
05:00+21sw2225100 0.0 100612
08:00+27sse1120100 0.0 1007247
11:00+33nnw221459 0.0 10071324
14:00+35nnw451094 0.0 10074439
17:00+34nnw551076 0.0 10074610
20:00+28ssw331792 0.0 100828
21 may, fri
fri2123:00+25ssw342238 0.0 100851
02:00+22sw332919 0.0 100942
05:00+20wsw473330 0.0 1010113
08:00+26w343070 0.0 1011353
11:00+32nw442098 0.0 10101310
14:00+34nnw441422 0.0 10083493
17:00+30s3522100 0.0 1008399
20:00+23sse81244100 0.9 1012265
22 may, sat
sat2223:00+24ssw233894 1.3 101035
02:00+21sw334732 0.0 101028
05:00+20wsw344552 0.0 101142
08:00+25w333599 0.0 1011383
11:00+30nnw112592 0.0 10101320
14:00+32ne1219100 0.0 10082799
17:00+20ssw151759100 0.4 1010311
20:00+23sw2542100 0.2 1011164